STARLINK-4432, 53487

Orbit data source: Space-Track

STARLINK-4432, 53487 is a payload satellite owned by SpaceX/Seattle (US) in SSO that was launched on Fri, 12 Aug 2022 UTC via an FALCON 9 launch vehicle from the Air Force Western Test Range (AFWTR). Payload-class satellites include a variety of spacecraft equipped with specific instruments for various scientific and technological missions. These include communications satellites like Starlink; space stations such as the ISS; scientific satellites like the Hubble; Earth observation satellites from companies like Planet Labs, Umbra, and HawkEye 360; GPS; miniature CubeSats for education and research; and military/defense satellites.

Loading next visibility...
Identifier
53487, 2022-099Y
Orbit
SSO
Country
Flag of USUS
Related business
Manufacturer
SpaceX/Seattle
Mission
Operational Commercial Communications
Bus & Motor
STARLINK, Unknown motor
Mass
300 kg wet, ~275 kg dry
Launch date (UTC)
2022-08-12 (4 years ago)
Launch vehicle
FALCON 9
Launch site
Air Force Western Test Range (AFWTR)
Object type
Payload
Rocket body
Debris
Shape & HBR
Box + 1 Pan, 10.1 m
Radar Cross Section
13.562 m², Large (>1 m²)

Expand to show TLE details & history
Last TLE update: 13 hours ago

TLE from 13 hours ago
0 STARLINK-4432
1 53487U 22099Y   26145.34854317  .00002303  00000-0  16354-3 0  9992
2 53487  97.4457 266.3984 0001369 138.8260 221.3070 15.05663732207585
Epoch: 2026-05-25T08:21Z
TLE epoch observation values (Epoch: 2026-05-25T08:21:54.129Z)
Latitude
-0.00012°
Longitude
-102.01474°
Altitude
553.251 km
Speed
7.585 km/s
True Right ascension
17h 45m 35s
True Declination
0° 00' 00"
Sunlit
Object was in full shadow at epoch
Visualization orbit readout
Latitude
Unknown
Longitude
Unknown
Altitude
Unknown
Speed
Unknown
Apparent Right ascension
Unknown
Apparent Declination
Unknown
Sunlit
N/A
Visualization observer readout
Local Sidereal Time
06:59:10
Azimuth
Unknown
Elevation
Unknown
Doppler factor
Unknown
Orbital elements
Apogee altitude
547.404 km
Perigee altitude
545.508 km
Semi-major axis
6,924.593 km
Eccentricity
0.00014
Inclination
97.4457°
RAAN
266.3984°
Arg. of periapsis
138.826°
True anomaly
221.29665°
Mean anomaly
221.307°
Eccentric anomaly
221.30182°
Mean motion
3.76662 °/min
Orbital period
95.58 mins
BSTAR
0.00016354
Loading maneuver chart data...
Computing Atmospheric mass density...
Loading historical data...
Loading historical data...
Loading historical data...
Loading historical data...
Loading historical data...
Loading historical data...
Loading historical data...

Documentation

Showing up to 5 results
|